Weather History for Scarborough, Trinidad And Tobago

Change the Weather History Date:

Sunday, May 26, 2013

  Actual Average Record
Temperature  
Mean Temperature 78 °F -  
Max Temperature 80 °F 86 °F 89 °F (1999)
Min Temperature 77 °F 77 °F 77 °F (1997)
Cooling Degree Days 14    
Growing Degree Days 28 (Base 50)    
Moisture  
Dew Point 74 °F    
Average Humidity 84    
Maximum Humidity 89    
Minimum Humidity 78    
Precipitation  
Precipitation 0.00 in - - ()
Sea Level Pressure  
Sea Level Pressure 29.95 in    
Wind  
Wind Speed 9 mph ()    
Max Wind Speed 22 mph    
Max Gust Speed 37 mph    
Visibility 5.8 miles    
Events Rain    
Averages and records for this station are not official NWS values.
T = Trace of Precipitation, MM = Missing Value Source: Averaged Metar Reports

Daily Weather History Graph

Daily Weather History Graph

Search for Another Location

Airport:

Trip Planner

Search our weather history database for the weather conditions in past years. The results will help you decide how hot, cold, wet, or windy it might be!

Date:

Astronomy

May. 26, 2013 Rise Set
Actual Time 5:39 AM AST 6:21 PM AST
Civil Twilight 5:16 AM AST 6:44 PM AST
Nautical Twilight 4:49 AM AST 7:11 PM AST
Astronomical Twilight 4:22 AM AST 7:38 PM AST
Moon 8:08 PM AST (5/26) 7:01 AM AST (5/26)
Length of Visible Light 13h 28m
Length of Day
12h 42m
Waning Gibbous, 97% of the Moon is Illuminated
May 26
Waning Gibbous
May 31
Last Quarter
Jun 8
New
Jun 16
First Quarter
Jun 23
Full

Hourly Weather History & Observations

Time (AST) Temp. Heat Index Dew Point Humidity Pressure Visibility Wind Dir Wind Speed Gust Speed Precip Events Conditions
12:00 AM 78.8 °F - 71.6 °F 78% 29.98 in 6.2 mi East 8.1 mph - N/A   Scattered Clouds
1:00 AM 78.8 °F - 73.4 °F 83% 29.95 in 6.2 mi East 5.8 mph - N/A   Scattered Clouds
2:00 AM 78.8 °F - 73.4 °F 83% 29.95 in 6.2 mi East 6.9 mph - N/A   Scattered Clouds
5:00 AM 77.0 °F - 73.4 °F 89% 29.92 in 6.2 mi Calm Calm - N/A   Scattered Clouds
6:00 AM 77.0 °F - 73.4 °F 89% 29.95 in 3.1 mi East 17.3 mph - N/A Rain Light Rain Showers
7:00 AM 77.0 °F - 73.4 °F 89% 29.95 in 6.2 mi East 11.5 mph - N/A   Mostly Cloudy
8:00 AM 78.8 °F - 73.4 °F 83% 29.98 in 6.2 mi East 15.0 mph - N/A   Mostly Cloudy
9:00 AM 80.6 °F 86.2 °F 75.2 °F 84% 30.01 in 6.2 mi East 15.0 mph - N/A   Mostly Cloudy
10:00 AM 77.0 °F - 73.4 °F 89% 30.01 in 3.1 mi East 21.9 mph 36.8 mph N/A Rain Light Rain Showers
11:00 AM 77.0 °F - 73.4 °F 89% 30.01 in 3.7 mi East 9.2 mph - N/A Rain Light Rain
12:00 PM 78.8 °F - 73.4 °F 83% 29.98 in 6.2 mi ESE 10.4 mph - N/A   Mostly Cloudy
1:00 PM 80.6 °F 85.4 °F 73.4 °F 79% 29.95 in 6.2 mi ESE 16.1 mph - N/A   Mostly Cloudy
2:00 PM 80.6 °F 86.2 °F 75.2 °F 84% 29.92 in 6.2 mi ESE 16.1 mph - N/A   Mostly Cloudy
3:00 PM 80.6 °F 86.2 °F 75.2 °F 84% 29.92 in 6.2 mi East 15.0 mph - N/A   Mostly Cloudy
4:00 PM 80.6 °F 86.2 °F 75.2 °F 84% 29.89 in 6.2 mi East 17.3 mph - N/A   Mostly Cloudy
5:00 PM 80.6 °F 86.2 °F 75.2 °F 84% 29.89 in 6.2 mi East 15.0 mph - N/A   Mostly Cloudy
6:00 PM 80.6 °F 85.4 °F 73.4 °F 79% 29.92 in 6.2 mi East 9.2 mph - N/A   Mostly Cloudy
7:00 PM 80.6 °F 85.4 °F 73.4 °F 79% 29.92 in 6.2 mi East 11.5 mph - N/A   Mostly Cloudy
8:00 PM 80.6 °F 87.1 °F 77.0 °F 89% 29.92 in 6.2 mi Calm Calm - N/A   Mostly Cloudy
9:00 PM 80.6 °F 85.4 °F 73.4 °F 79% 29.95 in 6.2 mi East 8.1 mph - N/A   Mostly Cloudy
10:00 PM 80.6 °F 86.2 °F 75.2 °F 84% 29.95 in 6.2 mi East 5.8 mph - N/A   Mostly Cloudy
11:00 PM 80.6 °F 86.2 °F 75.2 °F 84% 29.98 in 6.2 mi East 8.1 mph - N/A   Mostly Cloudy